KG1ZR Weather Reports


Display with metric or nautical units.
time (UTC)temp
F
wind
direction
speed
MPH
gust
MPH
rain 1hr
in
rain 24hr
in
rain mn
in
humidity
%
barometer
mb
20260508145429 54 317 6.0 16.0 0.00 0.00 0.00 52 1006.0
20260508144428 54 355 3.0 16.0 0.00 0.00 0.00 49 1006.0
20260508143429 53 299 5.0 16.0 0.00 0.00 0.00 51 1006.0
20260508142908 53 181 5.0 14.0 0.00 0.00 0.00 54 1006.1
20260508141429 53 292 5.0 14.0 0.00 0.00 0.00 53 1006.1
20260508140428 53 315 6.0 13.0 0.00 0.00 0.00 53 1006.1
20260508135428 52 285 4.0 11.0 0.00 0.00 0.00 54 1006.1
20260508134428 52 282 3.0 11.0 0.00 0.00 0.00 59 1006.3
20260508133429 51 294 4.0 11.0 0.00 0.00 0.00 56 1006.4
20260508132429 51 284 5.0 16.0 0.00 0.00 0.00 55 1006.4
20260508131907 51 355 4.0 14.0 0.00 0.00 0.00 54 1006.4
20260508130429 49 297 3.0 10.0 0.00 0.00 0.00 61 1006.4
20260508125428 49 258 5.0 11.0 0.00 0.00 0.00 59 1006.5
20260508124428 48 294 4.0 11.0 0.00 0.00 0.00 63 1006.6
20260508123911 47 311 3.0 9.0 0.00 0.00 0.00 63 1006.6
20260508122907 47 288 3.0 9.0 0.00 0.00 0.00 61 1006.6
20260508122046 46 186 3.0 9.0 0.00 0.00 0.00 64 1006.5
20260508115429 46 251 3.0 9.0 0.00 0.00 0.00 64 1006.6
20260508114428 45 311 3.0 9.0 0.00 0.00 0.00 65 1006.6
20260508113429 44 285 2.0 6.0 0.00 0.00 0.00 67 1006.6
20260508112428 43 253 2.0 6.0 0.00 0.00 0.00 70 1006.6
20260508111428 42 275 1.0 4.0 0.00 0.00 0.00 70 1006.6
20260508110429 42 240 1.0 5.0 0.00 0.00 0.00 72 1006.5
20260508105429 42 232 2.0 5.0 0.00 0.00 0.00 71 1006.4
20260508104428 41 232 1.0 5.0 0.00 0.00 0.00 72 1006.4
20260508103428 40 278 1.0 5.0 0.00 0.00 0.00 74 1006.2
20260508102429 40 303 2.0 6.0 0.00 0.00 0.00 75 1006.0
20260508101913 39 233 2.0 6.0 0.00 0.00 0.00 76 1005.9
20260508100904 38 274 2.0 4.0 0.00 0.00 0.00 78 1005.7
20260508095429 37 259 1.0 4.0 0.00 0.00 0.00 78 1005.5
20260508094428 37 241 1.0 5.0 0.00 0.00 0.00 78 1005.5
20260508093428 36 253 1.0 5.0 0.00 0.00 0.00 79 1005.2
20260508092429 36 276 1.0 4.0 0.00 0.00 0.00 79 1005.1
20260508091429 35 319 1.0 4.0 0.00 0.00 0.00 79 1005.0
20260508090611 35 244 0.0 4.0 0.00 0.00 0.00 78 1004.9
20260508084912 35 232 1.0 3.0 0.00 0.00 0.00 79 1004.8
20260508083428 34 249 1.0 3.0 0.00 0.00 0.00 79 1004.7
20260508082430 34 261 1.0 5.0 0.00 0.00 0.00 79 1004.5
20260508081428 35 331 1.0 5.0 0.00 0.01 0.00 79 1004.5
20260508080428 34 281 1.0 3.0 0.00 0.01 0.00 79 1004.5
20260508075428 35 255 0.0 2.0 0.00 0.01 0.00 79 1004.5
20260508074428 35 255 0.0 2.0 0.00 0.01 0.00 78 1004.5
20260508073428 35 255 0.0 2.0 0.00 0.01 0.00 78 1004.5
20260508072430 35 255 0.0 2.0 0.00 0.01 0.00 78 1004.7
20260508071429 35 255 0.0 1.0 0.00 0.01 0.00 77 1004.7
20260508070428 35 255 0.0 1.0 0.00 0.01 0.00 78 1004.8
20260508065430 35 255 0.0 1.0 0.00 0.01 0.00 79 1004.8
20260508064430 34 255 0.0 2.0 0.00 0.01 0.00 79 1004.9
20260508063428 34 255 0.0 2.0 0.00 0.01 0.00 79 1004.9
20260508062429 35 257 0.0 2.0 0.00 0.01 0.00 78 1005.1
20260508061908 35 290 0.0 2.0 0.00 0.01 0.00 77 1005.1
20260508060428 36 290 0.0 2.0 0.00 0.01 0.00 76 1005.3
20260508055429 37 302 0.0 1.0 0.00 0.01 0.00 73 1005.5
20260508054429 38 205 0.0 0.0 0.00 0.01 0.00 71 1005.6
20260508053429 38 205 0.0 2.0 0.00 0.01 0.00 71 1005.7
20260508052428 38 205 0.0 2.0 0.00 0.01 0.00 71 1005.8
20260508052357 38 205 1.0 3.0 0.00 0.01 0.00 70 1005.8
20260508050428 38 208 1.0 3.0 0.00 0.02 0.00 70 1005.7
20260508045429 38 207 1.0 3.0 0.00 0.02 0.00 68 1005.8
20260508044429 39 208 1.0 3.0 0.00 0.03 0.00 68 1005.9
20260508043913 40 251 1.0 4.0 0.00 0.05 0.00 66 1005.8
20260508042429 41 244 1.0 3.0 0.00 0.06 0.00 65 1005.8
20260508041429 42 294 0.0 2.0 0.00 0.06 0.00 63 1006.0
20260508040429 43 319 0.0 3.0 0.00 0.07 0.00 58 1006.1
20260508035509 43 342 1.0 7.0 0.00 0.09 0.07 58 1006.0
20260508034506 44 294 2.0 7.0 0.00 0.13 0.07 57 1006.1
20260508033501 44 307 2.0 9.0 0.00 0.13 0.07 57 1006.2
20260508032458 44 313 3.0 9.0 0.00 0.15 0.07 56 1006.3
20260508031958 45 321 3.0 9.0 0.00 0.16 0.07 55 1006.1
20260508030451 45 333 3.0 8.0 0.00 0.16 0.07 54 1005.9
20260508025447 45 323 2.0 8.0 0.00 0.16 0.07 54 1005.7
20260508024950 45 265 3.0 8.0 0.00 0.16 0.07 54 1005.5
20260508023951 45 302 2.0 7.0 0.00 0.17 0.07 54 1005.7
20260508022441 45 321 2.0 6.0 0.00 0.17 0.07 54 1005.6
20260508021938 45 312 2.0 9.0 0.00 0.18 0.07 54 1005.5
20260508020432 45 333 3.0 9.0 0.00 0.19 0.07 54 1005.5
20260508015429 45 316 3.0 12.0 0.00 0.19 0.07 54 1005.4
20260508014430 45 325 3.0 12.0 0.00 0.19 0.07 55 1005.4
20260508013429 44 300 1.0 4.0 0.00 0.20 0.07 57 1005.5
20260508012429 44 320 0.0 2.0 0.00 0.20 0.07 58 1005.4
20260508011429 45 15 0.0 0.0 0.00 0.20 0.07 57 1005.5
20260508010429 45 5 0.0 0.0 0.00 0.20 0.07 57 1005.5
20260508005429 46 5 0.0 0.0 0.00 0.20 0.07 57 1005.4
20260508004429 46 319 0.0 1.0 0.00 0.20 0.07 54 1005.2
20260508003909 47 319 0.0 1.0 0.00 0.20 0.07 54 1005.1
20260508002906 48 319 1.0 7.0 0.00 0.20 0.07 54 1004.8
20260508001906 49 319 1.0 7.0 0.00 0.20 0.07 53 1004.7
20260508000912 49 248 1.0 4.0 0.00 0.20 0.07 51 1004.5
20260507235428 50 299 2.0 4.0 0.00 0.20 0.07 50 1004.5
20260507234429 51 316 1.0 5.0 0.00 0.20 0.07 48 1004.4
20260507233430 52 338 1.0 4.0 0.00 0.20 0.07 48 1004.2
20260507232429 53 323 1.0 4.0 0.00 0.20 0.07 46 1004.1
20260507232355 54 294 2.0 10.0 0.00 0.20 0.07 44 1003.8
20260507230913 55 308 3.0 10.0 0.00 0.20 0.07 43 1003.5
20260507225915 56 294 4.0 17.0 0.00 0.20 0.07 41 1003.4
20260507224429 56 323 4.0 17.0 0.00 0.20 0.07 42 1003.2
20260507223430 57 296 4.0 16.0 0.00 0.20 0.07 43 1003.0
20260507222429 57 275 6.0 16.0 0.00 0.20 0.07 40 1003.0
20260507221429 57 277 4.0 14.0 0.00 0.21 0.07 42 1002.9
20260507220919 57 302 3.0 17.0 0.00 0.21 0.07 42 1002.9
20260507215429 58 335 5.0 17.0 0.00 0.22 0.07 42 1002.9
20260507214429 59 306 3.0 14.0 0.00 0.22 0.07 40 1002.8
20260507213429 59 325 4.0 12.0 0.00 0.23 0.07 41 1002.8
20260507212429 59 320 7.0 14.0 0.00 0.23 0.07 39 1002.7
20260507211429 60 299 5.0 14.0 0.00 0.24 0.07 39 1002.6
20260507210429 59 317 7.0 15.0 0.00 0.25 0.07 39 1002.4
20260507205429 59 274 5.0 13.0 0.00 0.26 0.07 41 1002.3
20260507204428 60 254 4.0 12.0 0.00 0.27 0.07 38 1002.0
20260507203429 60 293 4.0 9.0 0.00 0.28 0.07 43 1002.0
20260507202429 59 272 4.0 13.0 0.00 0.29 0.07 45 1002.0
20260507201429 60 250 5.0 13.0 0.00 0.29 0.07 40 1001.9
20260507200429 59 245 4.0 12.0 0.00 0.30 0.07 43 1001.8
20260507195430 60 248 6.0 14.0 0.00 0.31 0.07 41 1002.0
20260507194429 60 219 6.0 13.0 0.00 0.33 0.07 45 1002.1
20260507193911 60 288 5.0 14.0 0.00 0.34 0.07 46 1002.0
20260507192429 60 252 6.0 16.0 0.00 0.35 0.07 48 1002.0
20260507191428 60 275 6.0 16.0 0.00 0.36 0.07 55 1002.0
20260507190429 60 247 5.0 11.0 0.00 0.42 0.07 52 1002.1
20260507185429 58 20 4.0 10.0 0.00 0.44 0.07 57 1002.1
20260507184429 58 308 4.0 9.0 0.00 0.45 0.07 56 1002.2
20260507183431 59 355 4.0 12.0 0.00 0.46 0.07 56 1002.1
20260507182429 60 302 4.0 12.0 0.00 0.47 0.07 54 1002.1
20260507181429 61 326 4.0 13.0 0.00 0.47 0.07 58 1002.2
20260507180910 59 290 5.0 13.0 0.00 0.47 0.07 57 1002.4
20260507175429 60 342 5.0 13.0 0.00 0.47 0.07 53 1002.2
20260507174429 60 211 4.0 13.0 0.00 0.47 0.07 52 1002.4
20260507173429 60 296 4.0 11.0 0.00 0.47 0.07 55 1002.4
20260507172429 59 254 5.0 11.0 0.00 0.47 0.07 56 1002.5
20260507171912 58 254 5.0 10.0 0.00 0.47 0.07 57 1002.6
20260507170429 58 254 5.0 10.0 0.00 0.47 0.07 56 1002.8
20260507165429 58 288 4.0 12.0 0.00 0.47 0.07 60 1002.8
20260507164428 58 271 6.0 14.0 0.00 0.47 0.07 60 1002.9
20260507163428 58 246 4.0 10.0 0.00 0.47 0.07 58 1003.0
20260507162429 58 317 4.0 10.0 0.00 0.47 0.07 58 1003.1
20260507161429 58 259 3.0 8.0 0.00 0.47 0.07 59 1003.2
20260507160903 58 213 3.0 7.0 0.00 0.47 0.07 56 1003.2
20260507155429 58 187 4.0 9.0 0.00 0.47 0.07 55 1003.5
20260507154429 58 325 4.0 9.0 0.00 0.47 0.07 55 1003.5
20260507153428 58 333 3.0 8.0 0.00 0.47 0.07 64 1003.5
20260507152429 57 221 4.0 9.0 0.00 0.47 0.07 62 1003.6
20260507151429 57 180 3.0 7.0 0.00 0.47 0.07 65 1003.7
20260507150429 56 249 3.0 10.0 0.00 0.47 0.07 66 1003.8